Flag for Switzerland Weather past 2 weeks in Aarau, Aargau, Switzerland

Now
94 °F

Extremely hot.


Feels Like: 94 °F
Forecast: 69 / 96 °F
Wind: 2 mph from Southwest

Location: Wynau

Current Time: Jul 4, 2015 at 5:46:10 PM

Latest Report: Jul 4, 2015 at 5:00 PM


Visibility: N/A

Pressure: 30.04 "Hg

Humidity: 33%

Dew point: 61 °F

Location of AarauLocation

Historic Weather in Aarau — Graph

°F

Aarau temperature yesterday

Maximum temperature yesterday: 94 °F (at 5:00 PM)
Minimum temperature yesterday: 66 °F (at 5:00 AM)
Average temperature yesterday: 79 °F

Past Weeks' High & Low Weather Summary

 TemperatureHumidityPressure
High94 °F (Jul 4, 4:00 PM)100% (Jun 22, 5:00 AM)30.24 "Hg (Jun 22, 5:00 AM)
Low45 °F (Jun 24, 6:00 AM)28% (Jun 30, 6:00 PM)29.74 "Hg (Jun 22, 9:00 PM)
Average67 °F68%30.10 "Hg
* Reported Jun 19 4:00 PM — Jul 4 4:00 PM, Aarau, Weather by CustomWeather, © 2015

Note: Actual official high and low records may vary slightly from our data, if they occured in-between our weather recording intervals... More about our weather records

Advertising

Aarau weather history for previous 24 hours

 ConditionsComfort  
Time TempWeatherWind HumidityBarometerVisibility
4:00 PM
Sat, Jul 4
94 °FExtremely hot.3 mph33%30.05 "HgN/A
3:00 PM93 °FHot.3 mph37%30.07 "HgN/A
2:00 PM91 °FHot.3 mph39%30.09 "HgN/A
1:00 PM90 °FHot.5 mph42%30.11 "HgN/A
12:00 PM87 °FWarm.5 mph49%30.13 "HgN/A
11:00 AM84 °FWarm.5 mph52%30.14 "HgN/A
10:00 AM82 °FWarm.5 mph60%30.15 "HgN/A
9:00 AM77 °FMild.3 mph71%30.16 "HgN/A
8:00 AM70 °FMild.1 mph87%30.19 "HgN/A
7:00 AM67 °FMild.1 mph94%30.19 "HgN/A
6:40 AM66 °FMild.No wind95%30.19 "HgN/A
6:00 AM65 °FMild.No wind98%30.19 "HgN/A
5:00 AM65 °FMild.1 mph93%30.18 "HgN/A
4:00 AM67 °FMild.No wind95%30.17 "HgN/A
3:00 AM68 °FMild.1 mph95%30.17 "HgN/A
2:00 AM68 °FMild.1 mph94%30.16 "HgN/A
1:00 AM69 °FMild.1 mph91%30.16 "HgN/A
12:00 AM71 °FMild.No wind87%30.16 "HgN/A
11:00 PM
Fri, Jul 3
73 °FMild.No wind76%30.15 "HgN/A
10:00 PM76 °FMild.No wind72%30.14 "HgN/A
9:00 PM80 °FWarm.1 mph63%30.11 "HgN/A
8:00 PM84 °FWarm.2 mph56%30.11 "HgN/A
7:00 PM93 °FHot.6 mph39%30.08 "HgN/A
6:00 PM93 °FExtremely hot.2 mph33%30.08 "HgN/A
5:00 PM94 °FExtremely hot.2 mph33%30.09 "HgN/A
Weather by CustomWeather, © 2015

See weather overviewHow to use our weather pages